Flag for U.S.A. Weather past 2 weeks in Fort Lauderdale, Florida, U.S.A.

Now
87 °F

Broken clouds.


Feels Like: 97 °F
Forecast: 79 / 86 °F
Wind: 12 mph from East

Location: Fort Lauderdale / Hollywood International Airport

Current Time: Aug 1, 2014 at 6:44:27 PM

Latest Report: Aug 1, 2014 at 5:53 PM


Visibility: 10 mi

Pressure: 29.93 "Hg

Humidity: 67%

Dew point: 75 °F

Location of Fort LauderdaleLocation

Historic Weather in Fort Lauderdale — Graph

°F

Fort Lauderdale temperature yesterday

Maximum temperature yesterday: 93 °F (at 2:53 PM)
Minimum temperature yesterday: 78 °F (at 5:01 PM)
Average temperature yesterday: 83 °F

Past Weeks' High & Low Weather Summary

 TemperatureHumidityPressure
High94 °F (Jul 18, 2:53 PM)97% (Jul 23, 12:53 PM)30.11 "Hg (Jul 23, 12:53 PM)
Low77 °F (Jul 21, 2:58 PM)46% (Jul 18, 2:53 PM)29.92 "Hg (Jul 30, 3:53 PM)
Average84 °F74%30.03 "Hg
* Reported Jul 17 5:53 PM — Aug 1 5:53 PM, Fort Lauderdale, Weather by CustomWeather, © 2014

Note: Actual official high and low records may vary slightly from our data, if they occured in-between our weather recording intervals... More about our weather records

Advertising

Fort Lauderdale weather history for previous 24 hours

 ConditionsComfort  
Time TempWeatherWind HumidityBarometerVisibility
5:53 PM
Aug 1
87 °FBroken clouds.12 mph67%29.93 "Hg10 mi
4:53 PM89 °FPartly sunny.12 mph63%29.93 "Hg10 mi
3:53 PM91 °FPassing clouds.14 mph60%29.93 "Hg10 mi
2:53 PM91 °FPassing clouds.12 mph57%29.94 "Hg10 mi
1:53 PM91 °FPassing clouds.12 mph57%29.96 "Hg10 mi
12:53 PM90 °FPassing clouds.9 mph59%29.98 "Hg10 mi
11:53 AM90 °FPassing clouds.7 mph56%29.98 "Hg10 mi
10:53 AM89 °FScattered clouds.10 mph61%29.98 "Hg10 mi
9:53 AM88 °FScattered clouds.8 mph61%29.97 "Hg10 mi
8:53 AM87 °FBroken clouds.9 mph65%29.97 "Hg10 mi
7:53 AM85 °FPassing clouds.3 mph72%29.96 "Hg10 mi
6:53 AM83 °FPassing clouds.5 mph77%29.94 "Hg10 mi
5:53 AM82 °FPassing clouds.5 mph77%29.93 "Hg10 mi
4:53 AM83 °FPassing clouds.7 mph77%29.93 "Hg10 mi
3:53 AM81 °FPassing clouds.No wind82%29.94 "Hg10 mi
2:53 AM82 °FPassing clouds.No wind77%29.96 "Hg10 mi
1:53 AM82 °FPassing clouds.6 mph74%29.98 "Hg10 mi
12:53 AM82 °FPassing clouds.6 mph74%29.99 "Hg10 mi
11:53 PM
Jul 31
81 °FPassing clouds.6 mph79%30.01 "Hg10 mi
10:53 PM80 °FPassing clouds.5 mph85%30.01 "Hg10 mi
9:53 PM79 °FPassing clouds.3 mph88%30.00 "Hg10 mi
8:53 PM79 °FPassing clouds.No wind88%29.99 "Hg10 mi
7:53 PM80 °FBroken clouds.5 mph85%29.98 "Hg10 mi
6:53 PM80 °FPartly sunny.9 mph81%29.98 "Hg10 mi
Weather by CustomWeather, © 2014

See weather overviewHow to use our weather pages